• In Russia
  • List of Countries
  • For 7 days
  • Water Temperature
  • Satellite Maps
  • Weather Map
  • Weather Widgets
  • user-avatar
    Login

    Hourly Weather Nashavar

    Today, 16 October, Tuesday

    Time Temperature Precipitation Wind Pressure Humidity
    00:00 +25°C° 0 mm 1 mps 731 mmHg 33%
    01:00 +24°C° 0 mm 2 mps 731 mmHg 34%
    02:00 +23°C° 0 mm 2 mps 731 mmHg 36%
    03:00 +23°C° 0 mm 2 mps 731 mmHg 38%
    04:00 +21°C° 0 mm 2 mps 731 mmHg 40%
    05:00 +22°C° 0 mm 1 mps 731 mmHg 41%
    06:00 +23°C° 0 mm 1 mps 731 mmHg 40%
    07:00 +23°C° 0 mm 1 mps 731 mmHg 39%
    08:00 +24°C° 0 mm 1 mps 731 mmHg 38%
    09:00 +25°C° 0 mm 2 mps 731 mmHg 35%
    10:00 +26°C° 0 mm 2 mps 731 mmHg 32%
    11:00 +28°C° 0 mm 2 mps 731 mmHg 29%
    12:00 +28°C° 0 mm 2 mps 731 mmHg 28%
    13:00 +29°C° 0 mm 2 mps 730 mmHg 26%
    14:00 +30°C° 0 mm 3 mps 730 mmHg 24%
    15:00 +30°C° 0.1 mm 2 mps 729 mmHg 24%
    16:00 +30°C° 0.1 mm 2 mps 729 mmHg 25%
    17:00 +29°C° 0.1 mm 2 mps 729 mmHg 25%
    18:00 +28°C° 0.1 mm 2 mps 729 mmHg 28%
    19:00 +27°C° 0.1 mm 2 mps 729 mmHg 30%
    20:00 +26°C° 0.1 mm 2 mps 729 mmHg 33%
    21:00 +25°C° 0 mm 2 mps 730 mmHg 35%
    22:00 +24°C° 0 mm 2 mps 730 mmHg 37%
    23:00 +24°C° 0 mm 2 mps 731 mmHg 40%

    Tomorrow, 17 October, Wednesday

    Time Temperature Precipitation Wind Pressure Humidity
    00:00 +23°C° 0 mm 2 mps 731 mmHg 41%
    01:00 +23°C° 0 mm 2 mps 731 mmHg 42%
    02:00 +21°C° 0 mm 2 mps 731 mmHg 43%
    03:00 +21°C° 0 mm 2 mps 731 mmHg 42%
    04:00 +21°C° 0 mm 2 mps 731 mmHg 41%
    05:00 +20°C° 0 mm 2 mps 731 mmHg 40%
    06:00 +21°C° 0 mm 2 mps 731 mmHg 36%
    07:00 +22°C° 0 mm 3 mps 731 mmHg 33%
    08:00 +22°C° 0 mm 3 mps 732 mmHg 29%
    09:00 +25°C° 0 mm 3 mps 732 mmHg 26%
    10:00 +26°C° 0 mm 3 mps 731 mmHg 23%
    11:00 +28°C° 0 mm 3 mps 731 mmHg 20%
    12:00 +28°C° 0 mm 3 mps 731 mmHg 19%
    13:00 +29°C° 0 mm 3 mps 730 mmHg 19%
    14:00 +30°C° 0 mm 2 mps 730 mmHg 18%
    15:00 +29°C° 0 mm 2 mps 729 mmHg 18%
    16:00 +29°C° 0 mm 2 mps 729 mmHg 19%
    17:00 +29°C° 0 mm 2 mps 729 mmHg 19%
    18:00 +28°C° 0 mm 2 mps 729 mmHg 20%
    19:00 +27°C° 0 mm 2 mps 729 mmHg 20%
    20:00 +25°C° 0 mm 2 mps 730 mmHg 21%
    21:00 +25°C° 0 mm 2 mps 730 mmHg 21%
    22:00 +24°C° 0 mm 2 mps 730 mmHg 21%
    23:00 +24°C° 0 mm 2 mps 730 mmHg 22%

    Day after tomorrow, 18 October, Thursday

    Time Temperature Precipitation Wind Pressure Humidity
    00:00 +23°C° 0 mm 2 mps 730 mmHg 22%
    01:00 +23°C° 0 mm 2 mps 730 mmHg 22%
    02:00 +21°C° 0 mm 2 mps 729 mmHg 22%
    03:00 +21°C° 0 mm 2 mps 729 mmHg 22%
    04:00 +21°C° 0 mm 2 mps 730 mmHg 22%
    05:00 +20°C° 0 mm 2 mps 730 mmHg 22%
    06:00 +21°C° 0 mm 2 mps 730 mmHg 21%
    07:00 +23°C° 0 mm 2 mps 730 mmHg 21%
    08:00 +23°C° 0 mm 2 mps 730 mmHg 20%
    09:00 +25°C° 0 mm 2 mps 731 mmHg 18%
    10:00 +26°C° 0 mm 2 mps 731 mmHg 17%
    11:00 +28°C° 0 mm 2 mps 731 mmHg 15%
    12:00 +29°C° 0 mm 2 mps 731 mmHg 15%
    13:00 +29°C° 0 mm 2 mps 730 mmHg 15%
    14:00 +30°C° 0 mm 2 mps 730 mmHg 15%
    15:00 +30°C° 0 mm 2 mps 729 mmHg 16%
    16:00 +29°C° 0 mm 1 mps 729 mmHg 17%
    17:00 +29°C° 0 mm 1 mps 729 mmHg 19%
    18:00 +28°C° 0 mm 1 mps 730 mmHg 20%
    19:00 +27°C° 0 mm 1 mps 730 mmHg 21%
    20:00 +25°C° 0 mm 1 mps 730 mmHg 23%
    21:00 +25°C° 0 mm 1 mps 730 mmHg 23%
    22:00 +25°C° 0 mm 2 mps 730 mmHg 23%
    23:00 +24°C° 0 mm 2 mps 731 mmHg 23%

    19 October, Friday

    Time Temperature Precipitation Wind Pressure Humidity
    00:00 +24°C° 0 mm 2 mps 730 mmHg 24%
    01:00 +23°C° 0 mm 2 mps 730 mmHg 24%
    02:00 +23°C° 0 mm 2 mps 730 mmHg 25%
    03:00 +21°C° 0 mm 2 mps 730 mmHg 25%
    04:00 +21°C° 0 mm 2 mps 730 mmHg 25%
    05:00 +20°C° 0 mm 2 mps 730 mmHg 25%
    06:00 +21°C° 0 mm 2 mps 731 mmHg 24%
    07:00 +23°C° 0 mm 2 mps 731 mmHg 23%
    08:00 +23°C° 0 mm 2 mps 731 mmHg 22%
    09:00 +25°C° 0 mm 2 mps 732 mmHg 20%
    10:00 +26°C° 0 mm 2 mps 732 mmHg 18%
    11:00 +28°C° 0 mm 2 mps 732 mmHg 16%
    12:00 +28°C° 0 mm 2 mps 732 mmHg 16%
    13:00 +29°C° 0 mm 2 mps 731 mmHg 16%
    14:00 +30°C° 0 mm 2 mps 731 mmHg 16%
    15:00 +29°C° 0 mm 2 mps 731 mmHg 17%
    16:00 +29°C° 0 mm 1 mps 731 mmHg 18%
    17:00 +29°C° 0 mm 1 mps 731 mmHg 19%
    18:00 +28°C° 0 mm 1 mps 731 mmHg 20%
    19:00 +26°C° 0 mm 1 mps 731 mmHg 22%
    20:00 +25°C° 0 mm 1 mps 732 mmHg 23%
    21:00 +25°C° 0 mm 1 mps 732 mmHg 23%
    22:00 +24°C° 0 mm 2 mps 732 mmHg 24%
    23:00 +24°C° 0 mm 2 mps 732 mmHg 24%

    20 October, Saturday

    Time Temperature Precipitation Wind Pressure Humidity
    00:00 +23°C° 0 mm 2 mps 732 mmHg 25%
    01:00 +23°C° 0 mm 2 mps 732 mmHg 25%
    02:00 +21°C° 0 mm 2 mps 732 mmHg 25%
    03:00 +21°C° 0 mm 2 mps 732 mmHg 26%
    04:00 +21°C° 0 mm 2 mps 732 mmHg 26%
    05:00 +20°C° 0 mm 2 mps 732 mmHg 26%
    06:00 +21°C° 0 mm 2 mps 733 mmHg 25%
    07:00 +23°C° 0 mm 2 mps 733 mmHg 24%
    08:00 +23°C° 0 mm 2 mps 734 mmHg 23%
    09:00 +25°C° 0 mm 2 mps 734 mmHg 21%
    10:00 +26°C° 0 mm 2 mps 734 mmHg 19%
    11:00 +28°C° 0 mm 2 mps 734 mmHg 17%
    12:00 +28°C° 0 mm 2 mps 734 mmHg 16%
    13:00 +29°C° 0 mm 2 mps 733 mmHg 16%
    14:00 +30°C° 0 mm 2 mps 733 mmHg 15%
    15:00 +29°C° 0 mm 1 mps 733 mmHg 17%
    16:00 +29°C° 0 mm 1 mps 732 mmHg 18%
    17:00 +29°C° 0 mm 1 mps 732 mmHg 19%
    18:00 +27°C° 0 mm 1 mps 733 mmHg 20%
    19:00 +26°C° 0 mm 1 mps 733 mmHg 22%
    20:00 +25°C° 0 mm 1 mps 733 mmHg 24%
    21:00 +25°C° 0 mm 1 mps 733 mmHg 24%
    22:00 +24°C° 0 mm 1 mps 733 mmHg 24%
    23:00 +24°C° 0 mm 1 mps 733 mmHg 24%

    21 October, Sunday

    Time Temperature Precipitation Wind Pressure Humidity
    00:00 +23°C° 0 mm 1 mps 733 mmHg 25%
    01:00 +23°C° 0 mm 2 mps 733 mmHg 25%
    02:00 +21°C° 0 mm 2 mps 733 mmHg 26%
    03:00 +21°C° 0 mm 2 mps 733 mmHg 26%
    04:00 +20°C° 0 mm 2 mps 733 mmHg 26%
    05:00 +20°C° 0 mm 2 mps 733 mmHg 26%
    06:00 +21°C° 0 mm 2 mps 733 mmHg 25%
    07:00 +21°C° 0 mm 2 mps 733 mmHg 24%
    08:00 +23°C° 0 mm 2 mps 734 mmHg 23%
    09:00 +24°C° 0 mm 2 mps 734 mmHg 21%
    10:00 +26°C° 0 mm 2 mps 734 mmHg 19%
    11:00 +27°C° 0 mm 2 mps 734 mmHg 17%
    12:00 +28°C° 0 mm 2 mps 734 mmHg 16%
    13:00 +29°C° 0 mm 2 mps 733 mmHg 16%
    14:00 +29°C° 0 mm 1 mps 733 mmHg 15%
    15:00 +29°C° 0 mm 1 mps 733 mmHg 16%
    16:00 +29°C° 0 mm 1 mps 732 mmHg 17%
    17:00 +28°C° 0 mm 1 mps 732 mmHg 19%
    18:00 +27°C° 0 mm 1 mps 733 mmHg 20%
    19:00 +26°C° 0 mm 1 mps 733 mmHg 21%
    20:00 +25°C° 0 mm 1 mps 733 mmHg 23%
    21:00 +24°C° 0 mm 1 mps 734 mmHg 23%
    22:00 +24°C° 0 mm 1 mps 734 mmHg 23%
    23:00 +23°C° 0 mm 2 mps 734 mmHg 23%
    Show more